You are listening to:
LHBP Info - Budapest, Hungary

LHBP 241800Z VRB02KT CAVOK 04/00 Q0999 NOSIG

If stream doesn't start automatically press the play button
If stream stops then reload player then press play